PRIVATE WETTERSTATION BILLIGHEIM-ALLFELD                       ZURCK
Wetterdaten: Dienstag, 16.12.2014
Datum Zeit Temp. A. Temp. A. min Temp. A. max Feuchte A. Luftdruck Regen Wind Richtung Richtung Sonnenschein ET Solar Taupunkt Windchill Windben Empfang
16.12.2014 00:00 5,6 C 5,6 C 5,6 C 88 % 1015,4 hPa 0,0 l/m 1,6 km/h (1 Bft) S 180 0 min 0,000 mm 0 W/m 3,8 C 5,6 C 6,4 km/h (2 Bft) 100 %
16.12.2014 00:10 5,6 C 5,6 C 5,6 C 88 % 1015,2 hPa 0,0 l/m 1,6 km/h (1 Bft) W-SW 247 0 min 0,000 mm 0 W/m 3,8 C 5,6 C 6,4 km/h (2 Bft) 100 %
16.12.2014 00:20 5,6 C 5,6 C 5,7 C 88 % 1015,2 hPa 0,0 l/m 1,6 km/h (1 Bft) SW 225 0 min 0,000 mm 0 W/m 3,8 C 5,6 C 8,0 km/h (2 Bft) 100 %
16.12.2014 00:30 5,7 C 5,6 C 5,7 C 88 % 1015,0 hPa 0,0 l/m 1,6 km/h (1 Bft) W 270 0 min 0,000 mm 0 W/m 3,9 C 5,7 C 9,7 km/h (2 Bft) 100 %
16.12.2014 00:40 5,6 C 5,6 C 5,7 C 89 % 1014,8 hPa 0,0 l/m 1,6 km/h (1 Bft) W-SW 247 0 min 0,000 mm 0 W/m 3,9 C 5,6 C 6,4 km/h (2 Bft) 100 %
16.12.2014 00:50 5,6 C 5,6 C 5,6 C 89 % 1014,8 hPa 0,0 l/m 0,0 km/h (0 Bft) W-SW 247 0 min 0,000 mm 0 W/m 3,9 C 5,6 C 4,8 km/h (1 Bft) 100 %
16.12.2014 01:00 5,6 C 5,6 C 5,6 C 89 % 1014,8 hPa 0,0 l/m 1,6 km/h (1 Bft) W-SW 247 0 min 0,000 mm 0 W/m 3,9 C 5,6 C 4,8 km/h (1 Bft) 100 %
16.12.2014 01:10 5,6 C 5,6 C 5,6 C 89 % 1014,6 hPa 0,0 l/m 0,0 km/h (0 Bft) W-SW 247 0 min 0,000 mm 0 W/m 3,9 C 5,6 C 1,6 km/h (1 Bft) 100 %
16.12.2014 01:20 5,6 C 5,6 C 5,6 C 89 % 1014,4 hPa 0,0 l/m 1,6 km/h (1 Bft) W-SW 247 0 min 0,000 mm 0 W/m 3,9 C 5,6 C 6,4 km/h (2 Bft) 100 %
16.12.2014 01:30 5,6 C 5,6 C 5,6 C 89 % 1014,5 hPa 0,0 l/m 3,2 km/h (1 Bft) W-SW 247 0 min 0,000 mm 0 W/m 3,9 C 5,6 C 14,5 km/h (3 Bft) 100 %
16.12.2014 01:40 5,6 C 5,6 C 5,6 C 89 % 1014,4 hPa 0,0 l/m 3,2 km/h (1 Bft) SW 225 0 min 0,000 mm 0 W/m 3,9 C 5,6 C 9,7 km/h (2 Bft) 99 %
16.12.2014 01:50 5,6 C 5,6 C 5,6 C 89 % 1014,3 hPa 0,2 l/m 0,0 km/h (0 Bft) W-SW 247 0 min 0,000 mm 0 W/m 3,9 C 5,6 C 4,8 km/h (1 Bft) 100 %
16.12.2014 02:00 5,6 C 5,5 C 5,6 C 90 % 1014,2 hPa 0,0 l/m 0,0 km/h (0 Bft) W 270 0 min 0,000 mm 0 W/m 4,1 C 5,6 C 6,4 km/h (2 Bft) 91 %
16.12.2014 02:10 5,4 C 5,4 C 5,6 C 90 % 1014,2 hPa 0,0 l/m 0,0 km/h (0 Bft) W 270 0 min 0,000 mm 0 W/m 3,9 C 5,4 C 4,8 km/h (1 Bft) 100 %
16.12.2014 02:20 5,4 C 5,4 C 5,4 C 91 % 1014,1 hPa 0,0 l/m 0,0 km/h (0 Bft) W 270 0 min 0,000 mm 0 W/m 4,1 C 5,4 C 1,6 km/h (1 Bft) 100 %
16.12.2014 02:30 5,3 C 5,3 C 5,4 C 91 % 1014,1 hPa 0,0 l/m 0,0 km/h (0 Bft) W 270 0 min 0,000 mm 0 W/m 4,0 C 5,3 C 1,6 km/h (1 Bft) 100 %
16.12.2014 02:40 5,2 C 5,2 C 5,3 C 91 % 1014,2 hPa 0,2 l/m 1,6 km/h (1 Bft) S 180 0 min 0,000 mm 0 W/m 3,9 C 5,2 C 6,4 km/h (2 Bft) 100 %
16.12.2014 02:50 5,1 C 5,1 C 5,2 C 92 % 1014,1 hPa 0,2 l/m 3,2 km/h (1 Bft) S 180 0 min 0,000 mm 0 W/m 3,9 C 5,1 C 6,4 km/h (2 Bft) 100 %
16.12.2014 03:00 5,0 C 5,0 C 5,1 C 92 % 1014,1 hPa 0,0 l/m 1,6 km/h (1 Bft) S-SO 157 0 min 0,000 mm 0 W/m 3,8 C 5,0 C 8,0 km/h (2 Bft) 100 %
16.12.2014 03:10 4,9 C 4,9 C 5,0 C 92 % 1014,0 hPa 0,0 l/m 0,0 km/h (0 Bft) S 180 0 min 0,000 mm 0 W/m 3,7 C 4,9 C 4,8 km/h (1 Bft) 100 %
16.12.2014 03:20 4,8 C 4,8 C 4,9 C 92 % 1014,0 hPa 0,0 l/m 1,6 km/h (1 Bft) S 180 0 min 0,000 mm 0 W/m 3,6 C 4,8 C 4,8 km/h (1 Bft) 99 %
16.12.2014 03:30 4,8 C 4,8 C 4,8 C 92 % 1013,9 hPa 0,0 l/m 1,6 km/h (1 Bft) S-SW 202 0 min 0,000 mm 0 W/m 3,6 C 4,8 C 6,4 km/h (2 Bft) 100 %
16.12.2014 03:40 4,8 C 4,8 C 4,8 C 92 % 1013,8 hPa 0,2 l/m 1,6 km/h (1 Bft) S 180 0 min 0,000 mm 0 W/m 3,6 C 4,8 C 4,8 km/h (1 Bft) 99 %
16.12.2014 03:50 4,7 C 4,7 C 4,8 C 91 % 1013,7 hPa 0,2 l/m 1,6 km/h (1 Bft) S 180 0 min 0,000 mm 0 W/m 3,4 C 4,7 C 6,4 km/h (2 Bft) 100 %
16.12.2014 04:00 4,7 C 4,7 C 4,7 C 91 % 1013,7 hPa 0,0 l/m 1,6 km/h (1 Bft) S-SW 202 0 min 0,000 mm 0 W/m 3,4 C 4,7 C 8,0 km/h (2 Bft) 90 %
16.12.2014 04:10 4,7 C 4,7 C 4,7 C 91 % 1013,7 hPa 0,2 l/m 1,6 km/h (1 Bft) S 180 0 min 0,000 mm 0 W/m 3,4 C 4,7 C 6,4 km/h (2 Bft) 100 %
16.12.2014 04:20 4,7 C 4,7 C 4,7 C 91 % 1013,7 hPa 0,0 l/m 1,6 km/h (1 Bft) S 180 0 min 0,000 mm 0 W/m 3,4 C 4,7 C 4,8 km/h (1 Bft) 100 %
16.12.2014 04:30 4,7 C 4,7 C 4,7 C 91 % 1013,5 hPa 0,2 l/m 0,0 km/h (0 Bft) S 180 0 min 0,000 mm 0 W/m 3,4 C 4,7 C 3,2 km/h (1 Bft) 100 %
16.12.2014 04:40 4,7 C 4,7 C 4,8 C 91 % 1013,4 hPa 0,2 l/m 1,6 km/h (1 Bft) S-SO 157 0 min 0,000 mm 0 W/m 3,4 C 4,7 C 6,4 km/h (2 Bft) 100 %
16.12.2014 04:50 4,7 C 4,7 C 4,8 C 91 % 1013,5 hPa 0,0 l/m 1,6 km/h (1 Bft) S 180 0 min 0,000 mm 0 W/m 3,4 C 4,7 C 4,8 km/h (1 Bft) 100 %
16.12.2014 05:00 4,7 C 4,7 C 4,7 C 91 % 1013,3 hPa 0,0 l/m 0,0 km/h (0 Bft) S 180 0 min 0,000 mm 0 W/m 3,4 C 4,7 C 4,8 km/h (1 Bft) 100 %
16.12.2014 05:10 4,7 C 4,7 C 4,7 C 91 % 1013,2 hPa 0,0 l/m 1,6 km/h (1 Bft) S-SW 202 0 min 0,000 mm 0 W/m 3,4 C 4,7 C 6,4 km/h (2 Bft) 100 %
16.12.2014 05:20 4,7 C 4,7 C 4,8 C 91 % 1013,1 hPa 0,0 l/m 1,6 km/h (1 Bft) S-SW 202 0 min 0,000 mm 0 W/m 3,4 C 4,7 C 6,4 km/h (2 Bft) 100 %
16.12.2014 05:30 4,8 C 4,7 C 4,8 C 91 % 1013,1 hPa 0,0 l/m 1,6 km/h (1 Bft) S-SW 202 0 min 0,000 mm 0 W/m 3,5 C 4,8 C 6,4 km/h (2 Bft) 100 %
16.12.2014 05:40 4,8 C 4,8 C 4,8 C 91 % 1013,2 hPa 0,2 l/m 0,0 km/h (0 Bft) S-SW 202 0 min 0,000 mm 0 W/m 3,5 C 4,8 C 4,8 km/h (1 Bft) 100 %
16.12.2014 05:50 4,8 C 4,8 C 4,8 C 91 % 1013,3 hPa 0,0 l/m 0,0 km/h (0 Bft) N 0 0 min 0,000 mm 0 W/m 3,5 C 4,8 C 0,0 km/h (0 Bft) 100 %
16.12.2014 06:00 4,8 C 4,7 C 4,8 C 91 % 1013,2 hPa 0,0 l/m 1,6 km/h (1 Bft) S-SW 202 0 min 0,000 mm 0 W/m 3,5 C 4,8 C 4,8 km/h (1 Bft) 89 %
16.12.2014 06:10 4,7 C 4,7 C 4,8 C 91 % 1013,2 hPa 0,0 l/m 1,6 km/h (1 Bft) S-SW 202 0 min 0,000 mm 0 W/m 3,4 C 4,7 C 8,0 km/h (2 Bft) 99 %
16.12.2014 06:20 4,6 C 4,6 C 4,7 C 91 % 1013,1 hPa 0,0 l/m 3,2 km/h (1 Bft) S-SO 157 0 min 0,000 mm 0 W/m 3,3 C 4,6 C 8,0 km/h (2 Bft) 100 %
16.12.2014 06:30 4,5 C 4,5 C 4,6 C 91 % 1013,0 hPa 0,0 l/m 3,2 km/h (1 Bft) S-SO 157 0 min 0,000 mm 0 W/m 3,2 C 4,5 C 9,7 km/h (2 Bft) 100 %
16.12.2014 06:40 4,5 C 4,5 C 4,5 C 91 % 1013,0 hPa 0,0 l/m 3,2 km/h (1 Bft) S-SO 157 0 min 0,000 mm 0 W/m 3,2 C 4,5 C 9,7 km/h (2 Bft) 100 %
16.12.2014 06:50 4,4 C 4,4 C 4,5 C 91 % 1013,1 hPa 0,0 l/m 1,6 km/h (1 Bft) S-SO 157 0 min 0,000 mm 0 W/m 3,1 C 4,4 C 9,7 km/h (2 Bft) 99 %
16.12.2014 07:00 4,4 C 4,4 C 4,4 C 91 % 1012,9 hPa 0,0 l/m 3,2 km/h (1 Bft) S-SO 157 0 min 0,000 mm 0 W/m 3,1 C 4,4 C 9,7 km/h (2 Bft) 100 %
16.12.2014 07:10 4,3 C 4,3 C 4,4 C 91 % 1013,0 hPa 0,0 l/m 4,8 km/h (1 Bft) S-SO 157 0 min 0,000 mm 0 W/m 3,0 C 4,3 C 9,7 km/h (2 Bft) 100 %
16.12.2014 07:20 4,3 C 4,3 C 4,3 C 91 % 1013,1 hPa 0,0 l/m 1,6 km/h (1 Bft) S 180 0 min 0,000 mm 0 W/m 3,0 C 4,3 C 4,8 km/h (1 Bft) 100 %
16.12.2014 07:30 4,2 C 4,2 C 4,3 C 91 % 1013,1 hPa 0,0 l/m 1,6 km/h (1 Bft) S 180 0 min 0,000 mm 0 W/m 2,9 C 4,2 C 8,0 km/h (2 Bft) 100 %
16.12.2014 07:40 4,2 C 4,2 C 4,2 C 91 % 1013,2 hPa 0,0 l/m 1,6 km/h (1 Bft) S 180 0 min 0,000 mm 0 W/m 2,9 C 4,2 C 9,7 km/h (2 Bft) 100 %
16.12.2014 07:50 4,1 C 4,1 C 4,2 C 91 % 1013,2 hPa 0,0 l/m 3,2 km/h (1 Bft) S 180 0 min 0,000 mm 0 W/m 2,8 C 4,1 C 8,0 km/h (2 Bft) 100 %
16.12.2014 08:00 4,1 C 4,1 C 4,1 C 91 % 1013,2 hPa 0,0 l/m 3,2 km/h (1 Bft) S-SO 157 0 min 0,000 mm 0 W/m 2,8 C 4,1 C 8,0 km/h (2 Bft) 89 %
16.12.2014 08:10 4,1 C 4,1 C 4,1 C 91 % 1013,3 hPa 0,0 l/m 1,6 km/h (1 Bft) S-SO 157 0 min 0,000 mm 0 W/m 2,8 C 4,1 C 6,4 km/h (2 Bft) 100 %
16.12.2014 08:20 4,1 C 4,1 C 4,1 C 91 % 1013,4 hPa 0,0 l/m 3,2 km/h (1 Bft) S 180 0 min 0,000 mm 0 W/m 2,8 C 4,1 C 8,0 km/h (2 Bft) 100 %
16.12.2014 08:30 4,1 C 4,1 C 4,1 C 91 % 1013,3 hPa 0,0 l/m 3,2 km/h (1 Bft) S-SO 157 0 min 0,000 mm 0 W/m 2,8 C 4,1 C 9,7 km/h (2 Bft) 100 %
16.12.2014 08:40 4,1 C 4,1 C 4,1 C 91 % 1013,4 hPa 0,0 l/m 3,2 km/h (1 Bft) S 180 0 min 0,000 mm 0 W/m 2,8 C 4,1 C 8,0 km/h (2 Bft) 100 %
16.12.2014 08:50 4,2 C 4,1 C 4,2 C 91 % 1013,4 hPa 0,0 l/m 3,2 km/h (1 Bft) S 180 0 min 0,000 mm 5 W/m 2,9 C 4,2 C 9,7 km/h (2 Bft) 100 %
16.12.2014 09:00 4,2 C 4,1 C 4,2 C 91 % 1013,4 hPa 0,0 l/m 1,6 km/h (1 Bft) S-SW 202 0 min 0,000 mm 5 W/m 2,9 C 4,2 C 6,4 km/h (2 Bft) 100 %
16.12.2014 09:10 4,2 C 4,2 C 4,2 C 91 % 1013,4 hPa 0,0 l/m 3,2 km/h (1 Bft) S 180 0 min 0,000 mm 7 W/m 2,9 C 4,2 C 8,0 km/h (2 Bft) 100 %
16.12.2014 09:20 4,2 C 4,2 C 4,2 C 91 % 1013,4 hPa 0,0 l/m 3,2 km/h (1 Bft) S-SW 202 0 min 0,000 mm 7 W/m 2,9 C 4,2 C 9,7 km/h (2 Bft) 100 %
16.12.2014 09:30 4,2 C 4,2 C 4,2 C 91 % 1013,4 hPa 0,0 l/m 1,6 km/h (1 Bft) S 180 0 min 0,000 mm 11 W/m 2,9 C 4,2 C 8,0 km/h (2 Bft) 100 %
16.12.2014 09:40 4,2 C 4,2 C 4,2 C 91 % 1013,4 hPa 0,2 l/m 3,2 km/h (1 Bft) S 180 0 min 0,000 mm 11 W/m 2,9 C 4,2 C 9,7 km/h (2 Bft) 100 %
16.12.2014 09:50 4,2 C 4,2 C 4,3 C 91 % 1013,5 hPa 0,0 l/m 3,2 km/h (1 Bft) S 180 0 min 0,000 mm 7 W/m 2,9 C 4,2 C 8,0 km/h (2 Bft) 100 %
16.12.2014 10:00 4,3 C 4,2 C 4,3 C 91 % 1013,5 hPa 0,0 l/m 1,6 km/h (1 Bft) S-SO 157 0 min 0,000 mm 11 W/m 3,0 C 4,3 C 8,0 km/h (2 Bft) 91 %
16.12.2014 10:10 4,3 C 4,3 C 4,3 C 91 % 1013,5 hPa 0,0 l/m 1,6 km/h (1 Bft) S 180 0 min 0,000 mm 12 W/m 3,0 C 4,3 C 6,4 km/h (2 Bft) 100 %
16.12.2014 10:20 4,4 C 4,3 C 4,4 C 91 % 1013,5 hPa 0,0 l/m 3,2 km/h (1 Bft) S 180 0 min 0,000 mm 19 W/m 3,1 C 4,4 C 6,4 km/h (2 Bft) 100 %
16.12.2014 10:30 4,4 C 4,4 C 4,4 C 91 % 1013,5 hPa 0,0 l/m 3,2 km/h (1 Bft) S-SO 157 0 min 0,000 mm 28 W/m 3,1 C 4,4 C 6,4 km/h (2 Bft) 100 %
16.12.2014 10:40 4,5 C 4,4 C 4,5 C 91 % 1013,7 hPa 0,0 l/m 3,2 km/h (1 Bft) SO 135 0 min 0,000 mm 35 W/m 3,2 C 4,5 C 6,4 km/h (2 Bft) 100 %
16.12.2014 10:50 4,5 C 4,5 C 4,6 C 91 % 1013,6 hPa 0,0 l/m 1,6 km/h (1 Bft) S-SO 157 0 min 0,000 mm 30 W/m 3,2 C 4,5 C 8,0 km/h (2 Bft) 100 %
16.12.2014 11:00 4,6 C 4,5 C 4,6 C 91 % 1013,5 hPa 0,0 l/m 1,6 km/h (1 Bft) S 180 0 min 0,000 mm 39 W/m 3,3 C 4,6 C 8,0 km/h (2 Bft) 99 %
16.12.2014 11:10 4,7 C 4,6 C 4,7 C 91 % 1013,5 hPa 0,0 l/m 1,6 km/h (1 Bft) S-SW 202 0 min 0,000 mm 40 W/m 3,4 C 4,7 C 9,7 km/h (2 Bft) 100 %
16.12.2014 11:20 4,8 C 4,7 C 4,8 C 91 % 1013,5 hPa 0,0 l/m 1,6 km/h (1 Bft) SW 225 0 min 0,000 mm 37 W/m 3,5 C 4,8 C 9,7 km/h (2 Bft) 100 %
16.12.2014 11:30 5,0 C 4,8 C 5,0 C 91 % 1013,4 hPa 0,0 l/m 3,2 km/h (1 Bft) S-SW 202 0 min 0,000 mm 40 W/m 3,7 C 5,0 C 9,7 km/h (2 Bft) 100 %
16.12.2014 11:40 5,1 C 5,0 C 5,1 C 91 % 1013,3 hPa 0,0 l/m 4,8 km/h (1 Bft) SW 225 0 min 0,000 mm 44 W/m 3,8 C 5,1 C 9,7 km/h (2 Bft) 100 %
16.12.2014 11:50 5,1 C 5,1 C 5,1 C 91 % 1013,2 hPa 0,0 l/m 6,4 km/h (2 Bft) SW 225 0 min 0,000 mm 46 W/m 3,8 C 5,1 C 11,3 km/h (2 Bft) 100 %
16.12.2014 12:00 5,1 C 5,1 C 5,1 C 91 % 1013,1 hPa 0,0 l/m 3,2 km/h (1 Bft) SW 225 0 min 0,025 mm 40 W/m 3,8 C 5,1 C 9,7 km/h (2 Bft) 89 %
16.12.2014 12:10 5,1 C 5,1 C 5,1 C 91 % 1013,1 hPa 0,0 l/m 4,8 km/h (1 Bft) SW 225 0 min 0,000 mm 40 W/m 3,8 C 5,1 C 14,5 km/h (3 Bft) 100 %
16.12.2014 12:20 5,2 C 5,1 C 5,2 C 91 % 1013,1 hPa 0,0 l/m 3,2 km/h (1 Bft) SW 225 0 min 0,000 mm 51 W/m 3,9 C 5,2 C 8,0 km/h (2 Bft) 100 %
16.12.2014 12:30 5,2 C 5,2 C 5,2 C 91 % 1013,0 hPa 0,0 l/m 1,6 km/h (1 Bft) SW 225 0 min 0,000 mm 39 W/m 3,9 C 5,2 C 9,7 km/h (2 Bft) 100 %
16.12.2014 12:40 5,3 C 5,2 C 5,3 C 91 % 1013,0 hPa 0,0 l/m 3,2 km/h (1 Bft) SW 225 0 min 0,000 mm 56 W/m 4,0 C 5,3 C 8,0 km/h (2 Bft) 100 %
16.12.2014 12:50 5,4 C 5,3 C 5,4 C 91 % 1013,0 hPa 0,0 l/m 3,2 km/h (1 Bft) W-SW 247 0 min 0,000 mm 63 W/m 4,1 C 5,4 C 9,7 km/h (2 Bft) 100 %
16.12.2014 13:00 5,5 C 5,4 C 5,5 C 91 % 1012,9 hPa 0,0 l/m 1,6 km/h (1 Bft) W-SW 247 0 min 0,025 mm 67 W/m 4,2 C 5,5 C 4,8 km/h (1 Bft) 100 %
16.12.2014 13:10 5,4 C 5,4 C 5,5 C 91 % 1012,9 hPa 0,0 l/m 4,8 km/h (1 Bft) W-SW 247 0 min 0,000 mm 62 W/m 4,1 C 5,4 C 14,5 km/h (3 Bft) 100 %
16.12.2014 13:20 5,5 C 5,4 C 5,5 C 91 % 1012,5 hPa 0,0 l/m 3,2 km/h (1 Bft) W-SW 247 0 min 0,000 mm 70 W/m 4,2 C 5,5 C 17,7 km/h (3 Bft) 99 %
16.12.2014 13:30 5,6 C 5,5 C 5,6 C 91 % 1012,5 hPa 0,0 l/m 4,8 km/h (1 Bft) W-NW 292 0 min 0,000 mm 127 W/m 4,2 C 5,6 C 12,9 km/h (3 Bft) 100 %
16.12.2014 13:40 5,7 C 5,6 C 5,7 C 91 % 1012,5 hPa 0,0 l/m 6,4 km/h (2 Bft) W-NW 292 0 min 0,000 mm 105 W/m 4,3 C 5,7 C 17,7 km/h (3 Bft) 100 %
16.12.2014 13:50 5,7 C 5,7 C 5,7 C 91 % 1012,4 hPa 0,0 l/m 6,4 km/h (2 Bft) W 270 0 min 0,000 mm 93 W/m 4,3 C 5,7 C 16,1 km/h (3 Bft) 98 %
16.12.2014 14:00 5,8 C 5,7 C 5,8 C 91 % 1012,4 hPa 0,0 l/m 3,2 km/h (1 Bft) W 270 0 min 0,025 mm 88 W/m 4,4 C 5,8 C 11,3 km/h (2 Bft) 98 %
16.12.2014 14:10 5,9 C 5,8 C 5,9 C 91 % 1012,3 hPa 0,0 l/m 3,2 km/h (1 Bft) W-SW 247 0 min 0,000 mm 118 W/m 4,5 C 5,9 C 9,7 km/h (2 Bft) 97 %
16.12.2014 14:20 5,8 C 5,8 C 5,9 C 91 % 1012,3 hPa 0,0 l/m 4,8 km/h (1 Bft) W-SW 247 0 min 0,000 mm 113 W/m 4,4 C 5,8 C 14,5 km/h (3 Bft) 98 %
16.12.2014 14:30 5,8 C 5,8 C 5,8 C 91 % 1012,3 hPa 0,0 l/m 3,2 km/h (1 Bft) W 270 0 min 0,000 mm 51 W/m 4,4 C 5,8 C 9,7 km/h (2 Bft) 97 %
16.12.2014 14:40 5,8 C 5,8 C 5,8 C 91 % 1012,3 hPa 0,0 l/m 3,2 km/h (1 Bft) W-SW 247 0 min 0,000 mm 39 W/m 4,4 C 5,8 C 11,3 km/h (2 Bft) 98 %
16.12.2014 14:50 5,7 C 5,7 C 5,8 C 91 % 1012,4 hPa 0,0 l/m 4,8 km/h (1 Bft) SW 225 0 min 0,000 mm 26 W/m 4,3 C 5,7 C 11,3 km/h (2 Bft) 97 %
16.12.2014 15:00 5,7 C 5,7 C 5,7 C 91 % 1012,4 hPa 0,0 l/m 3,2 km/h (1 Bft) SW 225 0 min 0,025 mm 26 W/m 4,3 C 5,7 C 9,7 km/h (2 Bft) 98 %
16.12.2014 15:10 5,7 C 5,7 C 5,7 C 91 % 1012,4 hPa 0,0 l/m 3,2 km/h (1 Bft) SW 225 0 min 0,000 mm 26 W/m 4,3 C 5,7 C 12,9 km/h (3 Bft) 98 %
16.12.2014 15:20 5,7 C 5,7 C 5,7 C 92 % 1012,4 hPa 0,0 l/m 3,2 km/h (1 Bft) SW 225 0 min 0,000 mm 23 W/m 4,5 C 5,7 C 14,5 km/h (3 Bft) 97 %
16.12.2014 15:30 5,7 C 5,7 C 5,7 C 92 % 1012,5 hPa 0,0 l/m 1,6 km/h (1 Bft) SW 225 0 min 0,000 mm 25 W/m 4,5 C 5,7 C 6,4 km/h (2 Bft) 98 %
16.12.2014 15:40 5,7 C 5,7 C 5,7 C 92 % 1012,5 hPa 0,0 l/m 3,2 km/h (1 Bft) SW 225 0 min 0,000 mm 33 W/m 4,5 C 5,7 C 8,0 km/h (2 Bft) 97 %
16.12.2014 15:50 5,7 C 5,7 C 5,8 C 92 % 1012,4 hPa 0,0 l/m 3,2 km/h (1 Bft) SW 225 0 min 0,000 mm 28 W/m 4,5 C 5,7 C 8,0 km/h (2 Bft) 98 %
16.12.2014 16:00 5,7 C 5,6 C 5,7 C 91 % 1012,5 hPa 0,0 l/m 4,8 km/h (1 Bft) S-SW 202 0 min 0,000 mm 12 W/m 4,3 C 5,7 C 11,3 km/h (2 Bft) 97 %
16.12.2014 16:10 5,6 C 5,6 C 5,7 C 92 % 1012,4 hPa 0,0 l/m 1,6 km/h (1 Bft) S-SW 202 0 min 0,000 mm 7 W/m 4,4 C 5,6 C 6,4 km/h (2 Bft) 97 %
16.12.2014 16:20 5,5 C 5,5 C 5,6 C 92 % 1012,5 hPa 0,0 l/m 0,0 km/h (0 Bft) S-SW 202 0 min 0,000 mm 5 W/m 4,3 C 5,5 C 3,2 km/h (1 Bft) 98 %
16.12.2014 16:30 5,5 C 5,5 C 5,5 C 91 % 1012,6 hPa 0,0 l/m 0,0 km/h (0 Bft) S-SW 202 0 min 0,000 mm 0 W/m 4,2 C 5,5 C 1,6 km/h (1 Bft) 89 %
16.12.2014 16:40 5,6 C 5,5 C 5,6 C 91 % 1012,6 hPa 0,0 l/m 1,6 km/h (1 Bft) SW 225 0 min 0,000 mm 0 W/m 4,2 C 5,6 C 8,0 km/h (2 Bft) 97 %
16.12.2014 16:50 5,6 C 5,5 C 5,6 C 91 % 1012,6 hPa 0,0 l/m 1,6 km/h (1 Bft) SW 225 0 min 0,000 mm 0 W/m 4,2 C 5,6 C 8,0 km/h (2 Bft) 97 %
16.12.2014 17:00 5,6 C 5,6 C 5,6 C 91 % 1012,6 hPa 0,0 l/m 4,8 km/h (1 Bft) SW 225 0 min 0,000 mm 0 W/m 4,2 C 5,6 C 9,7 km/h (2 Bft) 98 %
16.12.2014 17:10 5,6 C 5,6 C 5,6 C 91 % 1012,5 hPa 0,0 l/m 6,4 km/h (2 Bft) S-SW 202 0 min 0,000 mm 0 W/m 4,2 C 5,6 C 11,3 km/h (2 Bft) 97 %
16.12.2014 17:20 5,6 C 5,6 C 5,6 C 91 % 1012,5 hPa 0,0 l/m 6,4 km/h (2 Bft) SW 225 0 min 0,000 mm 0 W/m 4,2 C 5,6 C 9,7 km/h (2 Bft) 98 %
16.12.2014 17:30 5,6 C 5,6 C 5,6 C 91 % 1012,8 hPa 0,0 l/m 2,9 km/h (1 Bft) SW 221 0 min 0,002 mm 0 W/m 4,2 C 5,6 C 6,4 km/h (2 Bft) 99 %
16.12.2014 17:40 5,6 C 5,6 C 5,6 C 91 % 1013,0 hPa 0,0 l/m 5,3 km/h (1 Bft) SW 221 0 min 0,000 mm 0 W/m 4,2 C 5,6 C 11,3 km/h (2 Bft) 100 %
16.12.2014 17:50 5,6 C 5,6 C 5,6 C 91 % 1012,8 hPa 0,0 l/m 3,9 km/h (1 Bft) SW 222 0 min 0,000 mm 0 W/m 4,2 C 5,6 C 9,7 km/h (2 Bft) 100 %
16.12.2014 18:00 5,6 C 5,6 C 5,6 C 91 % 1012,8 hPa 0,0 l/m 5,4 km/h (1 Bft) S-SW 209 0 min 0,000 mm 0 W/m 4,2 C 5,6 C 8,0 km/h (2 Bft) 100 %
16.12.2014 18:10 5,6 C 5,6 C 5,6 C 91 % 1013,0 hPa 0,0 l/m 4,0 km/h (1 Bft) S-SW 206 0 min 0,000 mm 0 W/m 4,2 C 5,6 C 8,0 km/h (2 Bft) 100 %
16.12.2014 18:20 5,6 C 5,6 C 5,6 C 91 % 1013,1 hPa 0,0 l/m 2,5 km/h (1 Bft) SW 236 0 min 0,000 mm 0 W/m 4,2 C 5,6 C 9,7 km/h (2 Bft) 100 %
16.12.2014 18:30 5,7 C 5,6 C 5,7 C 91 % 1013,2 hPa 0,0 l/m 1,7 km/h (1 Bft) W 275 0 min 0,000 mm 0 W/m 4,3 C 5,7 C 8,0 km/h (2 Bft) 100 %
16.12.2014 18:40 5,7 C 5,7 C 5,7 C 91 % 1013,3 hPa 0,0 l/m 2,0 km/h (1 Bft) SW 229 0 min 0,000 mm 0 W/m 4,3 C 5,7 C 8,0 km/h (2 Bft) 100 %
16.12.2014 18:50 5,7 C 5,7 C 5,7 C 91 % 1013,4 hPa 0,0 l/m 5,0 km/h (1 Bft) W 261 0 min 0,000 mm 0 W/m 4,3 C 5,7 C 14,5 km/h (3 Bft) 100 %
16.12.2014 19:00 5,7 C 5,7 C 5,7 C 91 % 1013,9 hPa 0,0 l/m 8,4 km/h (2 Bft) NW 311 0 min 0,000 mm 0 W/m 4,3 C 4,0 C 30,6 km/h (5 Bft) 100 %
16.12.2014 19:10 4,8 C 4,8 C 5,7 C 92 % 1013,8 hPa 0,4 l/m 8,6 km/h (2 Bft) N-NW 328 0 min 0,000 mm 0 W/m 3,6 C 2,9 C 25,7 km/h (4 Bft) 100 %
16.12.2014 19:20 4,3 C 4,3 C 4,8 C 92 % 1013,6 hPa 0,2 l/m 2,5 km/h (1 Bft) N 11 0 min 0,000 mm 0 W/m 3,1 C 4,3 C 16,1 km/h (3 Bft) 100 %
16.12.2014 19:30 4,2 C 4,2 C 4,3 C 92 % 1013,7 hPa 0,0 l/m 0,1 km/h (0 Bft) N-NO 20 0 min 0,000 mm 0 W/m 3,0 C 4,2 C 3,2 km/h (1 Bft) 100 %
16.12.2014 19:40 4,1 C 4,1 C 4,2 C 92 % 1013,6 hPa 0,0 l/m 0,0 km/h (0 Bft) N-NO 20 0 min 0,000 mm 0 W/m 2,9 C 4,1 C 0,0 km/h (0 Bft) 100 %
16.12.2014 19:50 4,1 C 4,1 C 4,1 C 92 % 1013,9 hPa 0,0 l/m 0,0 km/h (0 Bft) N-NO 20 0 min 0,000 mm 0 W/m 2,9 C 4,1 C 0,0 km/h (0 Bft) 90 %
16.12.2014 20:00 4,1 C 4,1 C 4,1 C 92 % 1014,0 hPa 0,0 l/m 0,0 km/h (0 Bft) N-NO 20 0 min 0,000 mm 0 W/m 2,9 C 4,1 C 1,6 km/h (1 Bft) 99 %
16.12.2014 20:14 4,1 C 4,1 C 4,1 C 92 % 1014,2 hPa 0,0 l/m 0,4 km/h (0 Bft) N-NO 20 0 min 0,000 mm 0 W/m 2,9 C 4,1 C 3,2 km/h (1 Bft) 100 %
16.12.2014 20:20 4,1 C 4,1 C 4,1 C 92 % 1014,2 hPa 0,0 l/m 2,0 km/h (1 Bft) N-NW 331 0 min 0,000 mm 0 W/m 2,9 C 4,1 C 6,4 km/h (2 Bft) 99 %
16.12.2014 20:30 4,2 C 4,1 C 4,2 C 92 % 1014,4 hPa 0,0 l/m 1,0 km/h (0 Bft) N-NW 336 0 min 0,000 mm 0 W/m 3,0 C 4,2 C 8,0 km/h (2 Bft) 99 %
16.12.2014 20:40 4,2 C 4,2 C 4,2 C 92 % 1014,5 hPa 0,0 l/m 2,3 km/h (1 Bft) NW 319 0 min 0,000 mm 0 W/m 3,0 C 4,2 C 8,0 km/h (2 Bft) 99 %
16.12.2014 20:50 4,2 C 4,2 C 4,2 C 92 % 1014,4 hPa 0,0 l/m 2,4 km/h (1 Bft) NW 317 0 min 0,000 mm 0 W/m 3,0 C 4,2 C 6,4 km/h (2 Bft) 99 %
16.12.2014 21:00 4,1 C 4,1 C 4,2 C 92 % 1014,4 hPa 0,0 l/m 0,2 km/h (0 Bft) NW 317 0 min 0,000 mm 0 W/m 2,9 C 4,1 C 4,8 km/h (1 Bft) 99 %
16.12.2014 21:10 3,9 C 3,9 C 4,1 C 92 % 1014,4 hPa 0,0 l/m 0,0 km/h (0 Bft) NW 315 0 min 0,000 mm 0 W/m 2,7 C 3,9 C 3,2 km/h (1 Bft) 97 %
16.12.2014 21:20 3,7 C 3,7 C 3,9 C 92 % 1014,6 hPa 0,0 l/m 0,0 km/h (0 Bft) NW 315 0 min 0,000 mm 0 W/m 2,5 C 3,7 C 3,2 km/h (1 Bft) 98 %
16.12.2014 21:30 3,6 C 3,6 C 3,7 C 92 % 1014,8 hPa 0,0 l/m 1,6 km/h (1 Bft) NW 315 0 min 0,000 mm 0 W/m 2,4 C 3,6 C 3,2 km/h (1 Bft) 97 %
16.12.2014 21:40 3,5 C 3,5 C 3,6 C 92 % 1014,7 hPa 0,0 l/m 0,0 km/h (0 Bft) NW 315 0 min 0,000 mm 0 W/m 2,3 C 3,5 C 3,2 km/h (1 Bft) 98 %
16.12.2014 21:50 3,4 C 3,4 C 3,5 C 92 % 1014,7 hPa 0,0 l/m 0,0 km/h (0 Bft) NW 315 0 min 0,000 mm 0 W/m 2,2 C 3,4 C 1,6 km/h (1 Bft) 98 %
16.12.2014 22:00 3,3 C 3,3 C 3,4 C 92 % 1014,9 hPa 0,0 l/m 0,0 km/h (0 Bft) NW 315 0 min 0,000 mm 0 W/m 2,1 C 3,3 C 1,6 km/h (1 Bft) 97 %
16.12.2014 22:10 3,2 C 3,2 C 3,3 C 92 % 1014,9 hPa 0,0 l/m 0,0 km/h (0 Bft) N 0 0 min 0,000 mm 0 W/m 2,0 C 3,2 C 0,0 km/h (0 Bft) 98 %
16.12.2014 22:20 3,1 C 3,1 C 3,2 C 92 % 1015,1 hPa 0,0 l/m 0,0 km/h (0 Bft) NW 315 0 min 0,000 mm 0 W/m 1,9 C 3,1 C 3,2 km/h (1 Bft) 90 %
16.12.2014 22:30 3,0 C 3,0 C 3,1 C 92 % 1015,2 hPa 0,0 l/m 0,0 km/h (0 Bft) NW 315 0 min 0,000 mm 0 W/m 1,8 C 3,0 C 1,6 km/h (1 Bft) 96 %
16.12.2014 22:40 2,8 C 2,8 C 3,0 C 92 % 1015,2 hPa 0,0 l/m 0,0 km/h (0 Bft) NW 315 0 min 0,000 mm 0 W/m 1,6 C 2,8 C 3,2 km/h (1 Bft) 96 %
16.12.2014 22:50 2,7 C 2,7 C 2,8 C 92 % 1015,3 hPa 0,0 l/m 0,0 km/h (0 Bft) NW 315 0 min 0,000 mm 0 W/m 1,5 C 2,7 C 1,6 km/h (1 Bft) 97 %
16.12.2014 23:00 2,4 C 2,4 C 2,6 C 92 % 1015,4 hPa 0,0 l/m 0,0 km/h (0 Bft) NW 315 0 min 0,000 mm 0 W/m 1,2 C 2,4 C 3,2 km/h (1 Bft) 98 %
16.12.2014 23:10 2,2 C 2,2 C 2,4 C 92 % 1015,3 hPa 0,0 l/m 1,6 km/h (1 Bft) NW 315 0 min 0,000 mm 0 W/m 1,0 C 2,2 C 6,4 km/h (2 Bft) 97 %
16.12.2014 23:20 2,1 C 2,1 C 2,2 C 92 % 1015,4 hPa 0,0 l/m 1,6 km/h (1 Bft) W-SW 247 0 min 0,000 mm 0 W/m 0,9 C 2,1 C 6,4 km/h (2 Bft) 98 %
16.12.2014 23:30 2,0 C 2,0 C 2,1 C 92 % 1015,5 hPa 0,0 l/m 0,0 km/h (0 Bft) W-SW 247 0 min 0,000 mm 0 W/m 0,8 C 2,0 C 4,8 km/h (1 Bft) 97 %
16.12.2014 23:40 1,9 C 1,9 C 2,0 C 92 % 1015,4 hPa 0,0 l/m 0,0 km/h (0 Bft) W-SW 247 0 min 0,000 mm 0 W/m 0,7 C 1,9 C 4,8 km/h (1 Bft) 98 %
16.12.2014 23:50 1,9 C 1,9 C 1,9 C 92 % 1015,4 hPa 0,0 l/m 1,6 km/h (1 Bft) W-SW 247 0 min 0,000 mm 0 W/m 0,7 C 1,9 C 4,8 km/h (1 Bft) 89 %
_ Min-Zeit 23:40 23:40 23:50 00:00 14:10 - 00:50 - - - - - 23:40 23:40 05:50 06:00
Minimum _ 1,9 C 1,9 C 1,9 C 88 % 1012,3 hPa - 0,0 km/h (0 Bft) - - - - - 0,7 C 1,9 C 0,0 km/h (0 Bft) 89 %
_ Max-Zeit 14:10 14:10 14:10 02:50 23:30 19:10 19:10 - - 00:00 12:00 13:30 14:10 14:10 19:00 00:00
Maximum _ 5,9 C 5,8 C 5,9 C 92 % 1015,5 hPa 0,4 l/m 8,6 km/h
N-NW (2 Bft)
- - 0 min 0,025 mm 127 W/m 4,5 C 5,9 C 30,6 km/h
NW (5 Bft)
100 %
Durchschnitt _ 4,7 C 4,7 C 4,8 C 91 % 1013,6 hPa #2,6 l/m 2,2 km/h (1 Bft) SW - #0 min. #0,102 mm 41 W/m 3,4 C 4,7 C 7,6 km/h (2 Bft) 99 %
PRIVATE WETTERSTATION BILLIGHEIM-ALLFELD - www.neckar-odenwald-wetter.de - Holger Sonntag